TimeCST,TemperatureF,Dew PointF,Humidity,Sea Level PressureIn,VisibilityMPH,Wind Direction,Wind SpeedMPH,Gust SpeedMPH,PrecipitationIn,Events,Conditions,WindDirDegrees,DateUTC
12:15 AM,26.4,26.4,100,29.93,1.5,East,16.1,-,0.01,Snow,Light Snow,90,2013-02-22 06:15:00
12:35 AM,26.4,26.4,100,29.93,1.8,East,13.8,20.7,0.02,Snow,Light Snow,90,2013-02-22 06:35:00
12:55 AM,26.4,26.4,100,29.91,1.2,East,17.3,25.3,0.03,Snow,Light Snow,90,2013-02-22 06:55:00
1:15 AM,26.4,26.2,99,29.90,1.5,East,17.3,24.2,0.01,Snow,Light Snow,100,2013-02-22 07:15:00
1:35 AM,26.4,26.1,99,29.90,1.5,East,18.4,23.0,0.01,Snow,Light Snow,100,2013-02-22 07:35:00
1:55 AM,26.4,26.1,99,29.89,1.8,East,18.4,24.2,0.02,Snow,Light Snow,100,2013-02-22 07:55:00
2:15 AM,26.1,26.1,100,29.88,1.5,East,13.8,20.7,N/A,Snow-Thunderstorm,Light Thunderstorms and Snow,100,2013-02-22 08:15:00
2:35 AM,25.9,25.9,100,29.88,1.5,East,13.8,-,N/A,Snow,Light Snow,90,2013-02-22 08:35:00
2:55 AM,26.1,26.1,100,29.87,2.5,East,11.5,-,0.01,Snow,Light Snow,90,2013-02-22 08:55:00
3:15 AM,26.1,26.1,100,29.86,2.0,East,13.8,-,N/A,Snow,Light Snow,90,2013-02-22 09:15:00
3:35 AM,26.1,26.1,100,29.86,1.2,East,10.4,18.4,N/A,Snow,Light Snow,80,2013-02-22 09:35:00
3:55 AM,25.7,25.7,100,29.85,1.2,East,8.1,-,N/A,Snow,Light Snow,80,2013-02-22 09:55:00
4:15 AM,25.7,25.7,100,29.84,1.2,ENE,9.2,-,N/A,Snow,Light Snow,70,2013-02-22 10:15:00
4:35 AM,25.7,25.7,100,29.84,2.0,East,10.4,-,N/A,Snow,Light Snow,80,2013-02-22 10:35:00
4:55 AM,25.7,25.7,100,29.84,2.0,East,11.5,-,N/A,Snow,Light Snow,80,2013-02-22 10:55:00
5:15 AM,26.4,26.4,100,29.84,3.0,East,10.4,16.1,N/A,Snow,Light Snow,100,2013-02-22 11:15:00
5:35 AM,26.6,26.4,99,29.82,4.0,East,13.8,-,N/A,Snow,Light Snow,100,2013-02-22 11:35:00
5:55 AM,26.6,26.4,99,29.82,10.0,East,9.2,-,N/A,Snow,Light Snow,100,2013-02-22 11:55:00
6:15 AM,27.0,26.6,99,29.82,10.0,East,9.2,-,N/A,,Overcast,100,2013-02-22 12:15:00
6:35 AM,26.6,26.6,100,29.81,10.0,East,9.2,-,N/A,,Overcast,100,2013-02-22 12:35:00
6:55 AM,27.5,27.1,99,29.81,7.0,East,9.2,-,N/A,,Overcast,100,2013-02-22 12:55:00
7:15 AM,27.5,27.5,100,29.80,7.0,East,11.5,-,N/A,,Overcast,100,2013-02-22 13:15:00
7:35 AM,28.0,27.9,99,29.81,7.0,ESE,9.2,-,N/A,,Overcast,120,2013-02-22 13:35:00
7:55 AM,28.4,28.4,100,29.80,5.0,ESE,9.2,-,N/A,,Overcast,110,2013-02-22 13:55:00
8:15 AM,28.9,28.9,100,29.80,5.0,ESE,9.2,-,N/A,,Overcast,120,2013-02-22 14:15:00
8:35 AM,29.3,29.3,100,29.81,4.0,SE,9.2,-,N/A,,Overcast,140,2013-02-22 14:35:00
8:55 AM,29.8,29.8,100,29.81,4.0,SE,6.9,-,N/A,,Overcast,140,2013-02-22 14:55:00
9:15 AM,30.0,30.0,100,29.81,4.0,SE,6.9,-,N/A,,Overcast,140,2013-02-22 15:15:00
9:35 AM,31.1,31.1,100,29.81,1.8,SSE,5.8,-,N/A,,Overcast,150,2013-02-22 15:35:00
9:55 AM,32.0,32.0,100,29.81,0.8,SSE,9.2,-,N/A,,Light Drizzle,160,2013-02-22 15:55:00
10:15 AM,32.0,32.0,100,29.81,0.8,South,8.1,-,N/A,,Overcast,170,2013-02-22 16:15:00
10:35 AM,32.2,32.2,100,29.82,0.5,South,6.9,-,N/A,Fog,Fog,170,2013-02-22 16:35:00
10:55 AM,32.9,32.9,100,29.83,0.5,South,8.1,-,N/A,Rain,Light Rain,190,2013-02-22 16:55:00
11:15 AM,33.6,33.6,100,29.83,0.8,SW,9.2,-,N/A,Snow,Light Snow,220,2013-02-22 17:15:00
11:35 AM,34.0,34.0,100,29.82,2.0,SW,9.2,-,N/A,Rain,Light Rain,220,2013-02-22 17:35:00
11:55 AM,34.2,34.2,100,29.82,5.0,SW,10.4,17.3,N/A,Rain,Light Rain,230,2013-02-22 17:55:00
12:15 PM,34.3,34.3,100,29.81,5.0,SW,11.5,-,N/A,Rain,Light Rain,230,2013-02-22 18:15:00
12:35 PM,34.9,34.9,100,29.81,10.0,WSW,11.5,-,N/A,,Overcast,240,2013-02-22 18:35:00
12:55 PM,34.9,34.0,97,29.81,10.0,WSW,13.8,-,N/A,,Overcast,240,2013-02-22 18:55:00
1:15 PM,34.5,33.4,96,29.81,10.0,WSW,15.0,21.9,N/A,,Overcast,240,2013-02-22 19:15:00
1:35 PM,34.3,33.1,95,29.81,10.0,WSW,16.1,20.7,N/A,,Overcast,240,2013-02-22 19:35:00
1:55 PM,34.2,32.5,94,29.81,10.0,WSW,16.1,21.9,N/A,,Overcast,240,2013-02-22 19:55:00
2:15 PM,34.7,32.0,90,29.82,10.0,WSW,15.0,-,N/A,,Overcast,240,2013-02-22 20:15:00
2:35 PM,34.3,29.8,84,29.83,10.0,WSW,19.6,-,N/A,,Overcast,250,2013-02-22 20:35:00
2:55 PM,33.8,27.1,77,29.84,10.0,WSW,23.0,28.8,N/A,,Overcast,250,2013-02-22 20:55:00
3:15 PM,32.9,26.2,76,29.85,10.0,West,23.0,27.6,N/A,,Overcast,260,2013-02-22 21:15:00
3:35 PM,32.2,26.2,79,29.86,10.0,West,16.1,-,N/A,,Overcast,260,2013-02-22 21:35:00
3:55 PM,32.0,26.1,79,29.86,10.0,WSW,15.0,-,N/A,,Overcast,240,2013-02-22 21:55:00
4:15 PM,32.0,25.5,77,29.86,10.0,WSW,18.4,-,N/A,,Overcast,250,2013-02-22 22:15:00
4:35 PM,31.8,25.5,78,29.87,10.0,WSW,15.0,-,N/A,,Overcast,240,2013-02-22 22:35:00
4:55 PM,31.8,25.5,78,29.88,10.0,WSW,13.8,-,N/A,,Overcast,240,2013-02-22 22:55:00
5:15 PM,31.5,25.5,79,29.88,10.0,WSW,13.8,-,N/A,,Overcast,240,2013-02-22 23:15:00
5:35 PM,31.3,25.7,80,29.89,10.0,WSW,12.7,18.4,N/A,,Overcast,250,2013-02-22 23:35:00
5:55 PM,31.1,25.5,80,29.89,10.0,WSW,15.0,19.6,N/A,,Overcast,240,2013-02-22 23:55:00
6:15 PM,31.1,25.5,80,29.90,10.0,WSW,15.0,-,N/A,,Overcast,240,2013-02-23 00:15:00
6:35 PM,30.9,25.5,80,29.90,10.0,WSW,15.0,-,N/A,,Overcast,240,2013-02-23 00:35:00
6:55 PM,30.6,25.3,81,29.91,10.0,WSW,16.1,-,N/A,,Overcast,240,2013-02-23 00:55:00
7:15 PM,30.4,25.2,81,29.91,10.0,SW,16.1,20.7,N/A,,Overcast,230,2013-02-23 01:15:00
7:35 PM,30.2,24.8,80,29.91,10.0,WSW,15.0,-,N/A,,Overcast,240,2013-02-23 01:35:00
7:55 PM,30.0,25.2,82,29.92,10.0,WSW,15.0,-,N/A,,Overcast,250,2013-02-23 01:55:00
8:15 PM,30.0,24.8,81,29.92,10.0,WSW,11.5,-,N/A,,Overcast,250,2013-02-23 02:15:00
8:35 PM,29.7,25.2,83,29.93,10.0,WSW,16.1,-,N/A,Snow,Light Snow,240,2013-02-23 02:35:00
8:55 PM,29.3,24.8,83,29.92,10.0,WSW,12.7,-,N/A,Snow,Light Snow,240,2013-02-23 02:55:00
9:15 PM,29.3,24.8,83,29.93,7.0,WSW,15.0,19.6,N/A,Snow,Light Snow,240,2013-02-23 03:15:00
9:35 PM,29.1,24.8,84,29.93,7.0,WSW,13.8,-,N/A,Snow,Light Snow,240,2013-02-23 03:35:00
9:55 PM,28.9,24.6,84,29.93,10.0,WSW,15.0,-,N/A,Snow,Light Snow,240,2013-02-23 03:55:00
10:15 PM,28.9,24.4,83,29.92,10.0,WSW,15.0,-,N/A,Snow,Light Snow,250,2013-02-23 04:15:00
10:35 PM,28.6,24.1,83,29.93,10.0,WSW,15.0,-,N/A,Snow,Light Snow,250,2013-02-23 04:35:00
10:55 PM,28.4,23.9,83,29.93,10.0,WSW,15.0,-,N/A,,Overcast,250,2013-02-23 04:55:00
11:15 PM,28.4,23.9,83,29.93,10.0,WSW,13.8,-,N/A,,Overcast,250,2013-02-23 05:15:00
11:35 PM,28.0,23.7,84,29.93,10.0,WSW,11.5,-,N/A,,Overcast,250,2013-02-23 05:35:00
11:55 PM,26.8,22.8,85,29.93,10.0,WSW,10.4,-,N/A,,Mostly Cloudy,250,2013-02-23 05:55:00